BEIDOU-2 IGSO-4

Last updated on Mon Sep 21 2026 00:02:58 GMT+0000 (Coordinated Universal Time)

1 37763U 11038A 26262.67054707 -.00000111 00000+0 00000+0 0 9995 2 37763 54.6028 164.8329 0160394 230.8500 298.4616 1.00267304 55590
UTC large
Height (km)
Speed (km/s)
/
Latitude / Longitude
Inclination (degrees)
Orbital Period (minutes)
Azimuth
Elevation
Range (km)
Doppler Factor

Next 0 passes for location: London (51.5072 / 0.1276)

No passes found over London.
BEIDOU-2 IGSO-4